No particular awareness of the weather is required.    There are no Weather-warnings


Meteo18 Weather Cam more information Meteo18 Weather Cam


Thunder radar more information blitzortung!


Rain radar more information rain snow radar


Visit our other weather sites:

Template documentation
and downloads

And another site



Weather Underground History page Text

Daily Summary for March 7, 2017 Units:  Metric    English   Both
« Previous Day
Next Day »
Daily Weekly Monthly Yearly Custom
  High: Low: Average:
Temperature: 9.2 °C 3.3 °C 6.5 °C
Dew Point: 4.4 °C 1.8 °C 3.4 °C
Humidity: 94 % 61 % 81 %
Wind Speed: 25.7 km/h 0.0 km/h 9.4 km/h
Wind Gust: 38.6 km/h - -
Wind:- - West
Pressure: 1023.9 hPa 1016.8 hPa -
Precipitation: 1.8 mm    
Historical Graphs
 
 
Tabular Data for March 7, 2017
Time Temperature Dew Point Pressure Wind Wind Speed Wind Gust Humidity Rainfall Rate (Hourly)
00:02 5.7 °C 4.0 °C 1016.8 hPa WNW 24.1 km/h 35.4 km/h 89 % 0.0 mm
00:07 5.8 °C 3.8 °C 1017.2 hPa WNW 25.7 km/h 35.4 km/h 87 % 0.0 mm
00:12 5.7 °C 3.7 °C 1016.8 hPa WNW 17.7 km/h 37.0 km/h 87 % 0.0 mm
00:17 5.7 °C 3.9 °C 1016.8 hPa WNW 11.3 km/h 37.0 km/h 88 % 0.0 mm
00:22 5.6 °C 3.9 °C 1016.8 hPa West 14.5 km/h 37.0 km/h 89 % 0.0 mm
00:27 5.7 °C 4.0 °C 1017.2 hPa West 22.5 km/h 35.4 km/h 89 % 0.0 mm
00:32 5.7 °C 4.2 °C 1017.2 hPa WNW 22.5 km/h 35.4 km/h 90 % 0.0 mm
00:37 5.7 °C 4.2 °C 1017.2 hPa WNW 12.9 km/h 35.4 km/h 90 % 0.0 mm
00:47 5.8 °C 4.1 °C 1017.2 hPa West 22.5 km/h 27.4 km/h 89 % 0.0 mm
00:52 5.9 °C 4.4 °C 1017.2 hPa West 11.3 km/h 33.8 km/h 90 % 0.0 mm
00:57 5.8 °C 4.3 °C 1017.2 hPa WNW 9.7 km/h 33.8 km/h 90 % 0.0 mm
01:02 5.9 °C 4.4 °C 1017.2 hPa WNW 8.0 km/h 33.8 km/h 90 % 0.3 mm
01:07 5.9 °C 4.2 °C 1017.2 hPa WNW 14.5 km/h 32.2 km/h 89 % 0.3 mm
01:12 5.9 °C 4.2 °C 1017.2 hPa West 16.1 km/h 32.2 km/h 89 % 0.3 mm
01:17 5.9 °C 4.2 °C 1017.2 hPa WNW 20.9 km/h 32.2 km/h 89 % 0.3 mm
01:22 5.9 °C 4.2 °C 1017.2 hPa WNW 22.5 km/h 30.6 km/h 89 % 0.3 mm
01:27 5.9 °C 4.4 °C 1017.2 hPa WNW 14.5 km/h 30.6 km/h 90 % 0.3 mm
01:32 5.9 °C 4.2 °C 1017.5 hPa WNW 6.4 km/h 30.6 km/h 89 % 0.3 mm
01:37 5.9 °C 4.2 °C 1017.5 hPa WNW 9.7 km/h 30.6 km/h 89 % 0.3 mm
01:42 5.9 °C 4.2 °C 1017.5 hPa West 12.9 km/h 30.6 km/h 89 % 0.3 mm
01:47 5.9 °C 4.2 °C 1017.5 hPa West 16.1 km/h 32.2 km/h 89 % 0.3 mm
01:52 5.9 °C 4.2 °C 1017.5 hPa West 1.6 km/h 32.2 km/h 89 % 0.3 mm
01:57 5.9 °C 4.4 °C 1017.5 hPa West 12.9 km/h 32.2 km/h 90 % 0.3 mm
02:02 5.8 °C 4.4 °C 1017.5 hPa WNW 9.7 km/h 30.6 km/h 91 % 0.0 mm
02:07 5.7 °C 4.3 °C 1017.5 hPa WSW 8.0 km/h 29.0 km/h 91 % 0.0 mm
02:12 5.7 °C 4.3 °C 1017.5 hPa NW 12.9 km/h 24.1 km/h 91 % 0.0 mm
02:17 5.7 °C 4.3 °C 1017.8 hPa WNW 14.5 km/h 24.1 km/h 91 % 0.0 mm
02:22 5.7 °C 4.3 °C 1017.8 hPa WNW 12.9 km/h 24.1 km/h 91 % 0.3 mm
02:27 5.7 °C 4.2 °C 1017.8 hPa West 22.5 km/h 22.5 km/h 90 % 0.3 mm
02:32 5.7 °C 4.2 °C 1017.8 hPa WNW 14.5 km/h 33.8 km/h 90 % 0.3 mm
02:37 5.6 °C 4.1 °C 1017.8 hPa WNW 17.7 km/h 33.8 km/h 90 % 0.5 mm
02:42 5.4 °C 3.9 °C 1017.8 hPa West 14.5 km/h 33.8 km/h 90 % 0.8 mm
02:47 5.4 °C 4.0 °C 1017.8 hPa WNW 24.1 km/h 25.7 km/h 91 % 1.0 mm
02:52 5.4 °C 4.0 °C 1017.8 hPa WNW 8.0 km/h 25.7 km/h 91 % 1.3 mm
02:57 5.4 °C 4.2 °C 1017.8 hPa WNW 8.0 km/h 24.1 km/h 92 % 1.3 mm
03:02 5.6 °C 4.2 °C 1017.8 hPa WNW 25.7 km/h 25.7 km/h 91 % 1.3 mm
03:07 5.7 °C 4.2 °C 1018.2 hPa West 12.9 km/h 38.6 km/h 90 % 1.5 mm
03:12 5.7 °C 4.2 °C 1018.2 hPa NW 11.3 km/h 38.6 km/h 90 % 1.5 mm
03:17 5.5 °C 4.0 °C 1018.2 hPa West 8.0 km/h 33.8 km/h 90 % 1.5 mm
03:22 5.5 °C 4.1 °C 1017.8 hPa West 19.3 km/h 33.8 km/h 91 % 1.5 mm
03:27 5.7 °C 4.2 °C 1018.2 hPa WNW 25.7 km/h 33.8 km/h 90 % 1.5 mm
03:32 5.8 °C 4.1 °C 1017.8 hPa WNW 16.1 km/h 33.8 km/h 89 % 1.3 mm
03:37 5.8 °C 4.1 °C 1017.8 hPa NW 12.9 km/h 32.2 km/h 89 % 1.0 mm
03:42 5.7 °C 4.0 °C 1018.2 hPa NW 16.1 km/h 30.6 km/h 89 % 0.8 mm
03:52 5.8 °C 4.1 °C 1018.2 hPa West 19.3 km/h 29.0 km/h 89 % 0.5 mm
03:57 5.8 °C 4.1 °C 1017.8 hPa WSW 20.9 km/h 27.4 km/h 89 % 0.5 mm
04:02 5.8 °C 4.1 °C 1018.2 hPa WNW 24.1 km/h 32.2 km/h 89 % 0.5 mm
04:07 5.8 °C 4.1 °C 1018.2 hPa WNW 8.0 km/h 32.2 km/h 89 % 0.3 mm
04:12 5.7 °C 4.0 °C 1018.2 hPa West 8.0 km/h 32.2 km/h 89 % 0.3 mm
04:17 5.7 °C 4.0 °C 1018.2 hPa West 4.8 km/h 32.2 km/h 89 % 0.0 mm
04:22 5.7 °C 4.0 °C 1018.2 hPa West 16.1 km/h 24.1 km/h 89 % 0.0 mm
04:27 5.7 °C 4.0 °C 1018.2 hPa WNW 17.7 km/h 24.1 km/h 89 % 0.0 mm
04:32 5.7 °C 4.0 °C 1018.2 hPa West 8.0 km/h 33.8 km/h 89 % 0.0 mm
04:37 5.6 °C 3.9 °C 1017.8 hPa NW 16.1 km/h 33.8 km/h 89 % 0.0 mm
04:42 5.6 °C 3.9 °C 1018.2 hPa West 6.4 km/h 33.8 km/h 89 % 0.0 mm
04:47 5.6 °C 3.9 °C 1018.2 hPa WSW 8.0 km/h 27.4 km/h 89 % 0.0 mm
04:52 5.6 °C 3.9 °C 1017.8 hPa WNW 12.9 km/h 24.1 km/h 89 % 0.0 mm
04:57 5.6 °C 3.9 °C 1018.2 hPa West 25.7 km/h 25.7 km/h 89 % 0.0 mm
05:02 5.6 °C 3.8 °C 1018.2 hPa West 22.5 km/h 27.4 km/h 88 % 0.0 mm
05:07 5.6 °C 3.8 °C 1018.2 hPa WNW 14.5 km/h 30.6 km/h 88 % 0.0 mm
05:12 5.6 °C 3.8 °C 1018.2 hPa West 11.3 km/h 30.6 km/h 88 % 0.0 mm
05:17 5.6 °C 3.8 °C 1018.5 hPa WNW 11.3 km/h 30.6 km/h 88 % 0.0 mm
05:22 5.5 °C 3.7 °C 1018.5 hPa West 14.5 km/h 29.0 km/h 88 % 0.0 mm
05:27 5.5 °C 3.7 °C 1018.5 hPa West 16.1 km/h 33.8 km/h 88 % 0.0 mm
05:32 5.5 °C 3.7 °C 1018.5 hPa WNW 19.3 km/h 33.8 km/h 88 % 0.0 mm
05:37 5.5 °C 3.7 °C 1018.5 hPa WNW 17.7 km/h 33.8 km/h 88 % 0.0 mm
05:42 5.5 °C 3.7 °C 1018.8 hPa West 25.7 km/h 32.2 km/h 88 % 0.0 mm
05:52 5.6 °C 3.4 °C 1018.5 hPa West 16.1 km/h 30.6 km/h 86 % 0.0 mm
05:57 5.5 °C 3.5 °C 1018.8 hPa WNW 11.3 km/h 30.6 km/h 87 % 0.0 mm
06:02 5.5 °C 3.5 °C 1018.8 hPa WNW 16.1 km/h 30.6 km/h 87 % 0.0 mm
06:07 5.4 °C 3.4 °C 1018.8 hPa WNW 20.9 km/h 29.0 km/h 87 % 0.0 mm
06:12 5.4 °C 3.4 °C 1019.2 hPa WNW 22.5 km/h 33.8 km/h 87 % 0.0 mm
06:17 5.4 °C 3.2 °C 1019.2 hPa WNW 17.7 km/h 33.8 km/h 86 % 0.0 mm
06:22 5.3 °C 3.3 °C 1019.2 hPa West 14.5 km/h 33.8 km/h 87 % 0.0 mm
06:27 5.3 °C 3.1 °C 1019.5 hPa WSW 11.3 km/h 29.0 km/h 86 % 0.0 mm
06:32 5.4 °C 3.1 °C 1019.5 hPa WNW 17.7 km/h 29.0 km/h 85 % 0.0 mm
06:42 5.3 °C 3.1 °C 1019.5 hPa WNW 8.0 km/h 35.4 km/h 86 % 0.0 mm
06:47 5.3 °C 3.3 °C 1019.5 hPa West 20.9 km/h 35.4 km/h 87 % 0.0 mm
06:52 5.2 °C 3.2 °C 1019.5 hPa WSW 12.9 km/h 33.8 km/h 87 % 0.0 mm
06:57 5.2 °C 3.2 °C 1018.8 hPa West 11.3 km/h 29.0 km/h 87 % 0.0 mm
07:02 5.2 °C 3.2 °C 1018.8 hPa WNW 16.1 km/h 29.0 km/h 87 % 0.0 mm
07:12 5.1 °C 3.1 °C 1019.2 hPa WNW 12.9 km/h 25.7 km/h 87 % 0.0 mm
07:17 5.1 °C 3.1 °C 1019.2 hPa WNW 14.5 km/h 25.7 km/h 87 % 0.0 mm
07:22 5.1 °C 3.1 °C 1019.5 hPa WNW 11.3 km/h 25.7 km/h 87 % 0.0 mm
07:27 5.1 °C 3.1 °C 1019.5 hPa West 8.0 km/h 25.7 km/h 87 % 0.0 mm
07:32 5.1 °C 3.1 °C 1019.5 hPa West 9.7 km/h 25.7 km/h 87 % 0.0 mm
07:37 5.0 °C 3.0 °C 1019.9 hPa West 8.0 km/h 29.0 km/h 87 % 0.0 mm
07:42 5.0 °C 3.2 °C 1019.9 hPa WNW 9.7 km/h 29.0 km/h 88 % 0.0 mm
07:52 5.1 °C 3.3 °C 1019.9 hPa WNW 9.7 km/h 22.5 km/h 88 % 0.0 mm
07:57 5.1 °C 3.3 °C 1019.9 hPa WNW 12.9 km/h 22.5 km/h 88 % 0.0 mm
08:02 5.1 °C 3.3 °C 1020.2 hPa West 9.7 km/h 22.5 km/h 88 % 0.0 mm
08:07 5.1 °C 3.3 °C 1020.2 hPa WNW 16.1 km/h 25.7 km/h 88 % 0.0 mm
08:12 5.1 °C 3.3 °C 1020.2 hPa West 11.3 km/h 25.7 km/h 88 % 0.0 mm
08:17 5.2 °C 3.4 °C 1020.2 hPa West 9.7 km/h 24.1 km/h 88 % 0.0 mm
08:22 5.2 °C 3.4 °C 1020.5 hPa West 9.7 km/h 22.5 km/h 88 % 0.0 mm
08:27 5.2 °C 3.4 °C 1020.5 hPa WNW 11.3 km/h 20.9 km/h 88 % 0.0 mm
08:32 5.3 °C 3.5 °C 1020.5 hPa West 20.9 km/h 20.9 km/h 88 % 0.0 mm
08:37 5.3 °C 3.5 °C 1020.5 hPa WSW 11.3 km/h 22.5 km/h 88 % 0.0 mm
08:42 5.4 °C 3.6 °C 1020.5 hPa West 14.5 km/h 22.5 km/h 88 % 0.0 mm
08:47 5.5 °C 3.5 °C 1020.9 hPa WSW 6.4 km/h 27.4 km/h 87 % 0.0 mm
08:52 5.6 °C 3.6 °C 1020.9 hPa West 16.1 km/h 27.4 km/h 87 % 0.0 mm
08:57 5.7 °C 3.7 °C 1020.5 hPa NW 11.3 km/h 27.4 km/h 87 % 0.0 mm
09:02 5.8 °C 3.6 °C 1020.9 hPa West 12.9 km/h 27.4 km/h 86 % 0.0 mm
09:07 5.8 °C 3.5 °C 1020.9 hPa WNW 22.5 km/h 22.5 km/h 85 % 0.0 mm
09:12 5.9 °C 3.6 °C 1020.9 hPa WNW 8.0 km/h 22.5 km/h 85 % 0.0 mm
09:17 5.9 °C 3.4 °C 1020.9 hPa West 9.7 km/h 22.5 km/h 84 % 0.0 mm
09:22 5.9 °C 3.6 °C 1021.2 hPa WNW 9.7 km/h 24.1 km/h 85 % 0.0 mm
09:27 5.9 °C 3.7 °C 1021.2 hPa West 6.4 km/h 24.1 km/h 86 % 0.0 mm
09:32 5.9 °C 3.7 °C 1020.9 hPa WNW 4.8 km/h 24.1 km/h 86 % 0.0 mm
09:37 6.0 °C 3.8 °C 1021.2 hPa WNW 14.5 km/h 24.1 km/h 86 % 0.0 mm
09:42 6.0 °C 3.8 °C 1020.9 hPa West 14.5 km/h 24.1 km/h 86 % 0.0 mm
09:47 6.1 °C 3.8 °C 1020.9 hPa West 8.0 km/h 24.1 km/h 85 % 0.0 mm
09:52 6.1 °C 3.8 °C 1020.9 hPa West 12.9 km/h 25.7 km/h 85 % 0.0 mm
09:57 6.2 °C 3.9 °C 1020.9 hPa WNW 19.3 km/h 25.7 km/h 85 % 0.0 mm
10:02 6.2 °C 3.9 °C 1020.9 hPa West 12.9 km/h 25.7 km/h 85 % 0.0 mm
10:07 6.3 °C 3.8 °C 1021.2 hPa WNW 12.9 km/h 22.5 km/h 84 % 0.0 mm
10:12 6.4 °C 3.9 °C 1020.9 hPa WNW 9.7 km/h 24.1 km/h 84 % 0.0 mm
10:17 6.4 °C 3.9 °C 1020.9 hPa WSW 8.0 km/h 25.7 km/h 84 % 0.0 mm
10:22 6.6 °C 3.9 °C 1020.9 hPa West 11.3 km/h 25.7 km/h 83 % 0.0 mm
10:27 6.7 °C 3.8 °C 1020.9 hPa WNW 12.9 km/h 25.7 km/h 82 % 0.0 mm
10:32 6.8 °C 3.9 °C 1021.2 hPa NW 19.3 km/h 30.6 km/h 82 % 0.0 mm
10:37 6.7 °C 3.8 °C 1020.9 hPa WNW 20.9 km/h 30.6 km/h 82 % 0.0 mm
10:42 6.8 °C 3.9 °C 1021.2 hPa NW 9.7 km/h 25.7 km/h 82 % 0.0 mm
10:47 6.9 °C 4.0 °C 1021.2 hPa WNW 16.1 km/h 27.4 km/h 82 % 0.0 mm
10:52 6.9 °C 3.7 °C 1021.2 hPa NNW 9.7 km/h 27.4 km/h 80 % 0.0 mm
10:57 6.9 °C 3.9 °C 1021.2 hPa WNW 9.7 km/h 25.7 km/h 81 % 0.0 mm
11:02 7.1 °C 4.1 °C 1021.2 hPa WNW 12.9 km/h 25.7 km/h 81 % 0.0 mm
11:07 7.1 °C 3.7 °C 1021.2 hPa WSW 4.8 km/h 27.4 km/h 79 % 0.0 mm
11:12 7.2 °C 3.6 °C 1021.2 hPa WNW 8.0 km/h 27.4 km/h 78 % 0.0 mm
11:17 7.3 °C 3.5 °C 1021.2 hPa WNW 12.9 km/h 27.4 km/h 77 % 0.0 mm
11:22 7.3 °C 3.2 °C 1020.9 hPa NW 9.7 km/h 25.7 km/h 75 % 0.0 mm
11:27 7.4 °C 3.1 °C 1020.9 hPa WNW 12.9 km/h 25.7 km/h 74 % 0.0 mm
11:32 7.7 °C 3.5 °C 1021.2 hPa WNW 6.4 km/h 25.7 km/h 75 % 0.0 mm
11:37 7.6 °C 3.5 °C 1021.2 hPa WNW 11.3 km/h 25.7 km/h 75 % 0.0 mm
11:42 7.7 °C 3.0 °C 1021.2 hPa WNW 20.9 km/h 22.5 km/h 72 % 0.0 mm
11:47 7.7 °C 3.2 °C 1021.2 hPa West 16.1 km/h 29.0 km/h 73 % 0.0 mm
11:52 7.7 °C 2.4 °C 1021.2 hPa West 12.9 km/h 29.0 km/h 69 % 0.0 mm
11:57 7.8 °C 2.7 °C 1021.6 hPa WNW 9.7 km/h 29.0 km/h 70 % 0.0 mm
12:02 7.8 °C 3.1 °C 1021.2 hPa WNW 14.5 km/h 29.0 km/h 72 % 0.0 mm
12:07 7.9 °C 3.2 °C 1021.2 hPa West 9.7 km/h 22.5 km/h 72 % 0.0 mm
12:12 8.1 °C 3.0 °C 1021.2 hPa WNW 9.7 km/h 20.9 km/h 70 % 0.0 mm
12:17 8.2 °C 3.6 °C 1021.2 hPa West 9.7 km/h 27.4 km/h 73 % 0.0 mm
12:22 8.2 °C 3.6 °C 1021.2 hPa WNW 14.5 km/h 27.4 km/h 73 % 0.0 mm
12:27 8.2 °C 2.9 °C 1020.9 hPa NW 8.0 km/h 22.5 km/h 69 % 0.0 mm
12:32 8.2 °C 2.9 °C 1020.9 hPa WNW 1.6 km/h 22.5 km/h 69 % 0.0 mm
12:37 8.2 °C 2.6 °C 1020.9 hPa WSW 4.8 km/h 20.9 km/h 68 % 0.0 mm
12:42 8.4 °C 3.4 °C 1020.9 hPa West 12.9 km/h 17.7 km/h 71 % 0.0 mm
12:47 8.4 °C 2.6 °C 1020.9 hPa West 9.7 km/h 19.3 km/h 67 % 0.0 mm
12:52 8.4 °C 2.8 °C 1020.9 hPa WNW 9.7 km/h 19.3 km/h 68 % 0.0 mm
12:57 8.5 °C 2.5 °C 1020.5 hPa WSW 9.7 km/h 19.3 km/h 66 % 0.0 mm
13:02 8.6 °C 2.4 °C 1020.5 hPa NW 12.9 km/h 25.7 km/h 65 % 0.0 mm
13:07 8.4 °C 2.6 °C 1020.5 hPa WNW 14.5 km/h 25.7 km/h 67 % 0.0 mm
13:12 8.5 °C 2.3 °C 1020.5 hPa WNW 11.3 km/h 25.7 km/h 65 % 0.0 mm
13:17 8.4 °C 2.4 °C 1020.9 hPa NW 6.4 km/h 24.1 km/h 66 % 0.0 mm
13:22 8.5 °C 1.9 °C 1020.9 hPa West 17.7 km/h 19.3 km/h 63 % 0.0 mm
13:27 8.6 °C 2.2 °C 1021.2 hPa West 8.0 km/h 20.9 km/h 64 % 0.0 mm
13:32 8.5 °C 2.3 °C 1021.2 hPa West 3.2 km/h 20.9 km/h 65 % 0.0 mm
13:37 8.6 °C 2.0 °C 1021.2 hPa West 14.5 km/h 20.9 km/h 63 % 0.0 mm
13:42 8.5 °C 2.1 °C 1021.2 hPa WNW 6.4 km/h 20.9 km/h 64 % 0.0 mm
13:47 8.7 °C 2.0 °C 1021.2 hPa WNW 6.4 km/h 17.7 km/h 63 % 0.0 mm
13:52 8.7 °C 2.0 °C 1020.9 hPa West 8.0 km/h 17.7 km/h 63 % 0.0 mm
13:57 8.8 °C 2.1 °C 1021.2 hPa WNW 3.2 km/h 16.1 km/h 63 % 0.0 mm
14:02 8.9 °C 2.2 °C 1020.9 hPa WNW 4.8 km/h 17.7 km/h 63 % 0.0 mm
14:07 9.2 °C 3.0 °C 1020.9 hPa WNW 17.7 km/h 19.3 km/h 65 % 0.0 mm
14:12 9.1 °C 2.9 °C 1020.9 hPa West 9.7 km/h 20.9 km/h 65 % 0.0 mm
14:17 8.9 °C 2.0 °C 1020.9 hPa WNW 6.4 km/h 20.9 km/h 62 % 0.0 mm
14:22 8.8 °C 1.9 °C 1020.9 hPa WSW 11.3 km/h 20.9 km/h 62 % 0.0 mm
14:27 8.8 °C 1.9 °C 1020.5 hPa WNW 8.0 km/h 22.5 km/h 62 % 0.0 mm
14:32 8.9 °C 1.8 °C 1020.5 hPa WNW 6.4 km/h 22.5 km/h 61 % 0.0 mm
14:37 8.9 °C 2.0 °C 1020.5 hPa WSW 11.3 km/h 20.9 km/h 62 % 0.0 mm
14:42 9.0 °C 1.9 °C 1020.9 hPa West 14.5 km/h 20.9 km/h 61 % 0.0 mm
14:47 8.9 °C 2.2 °C 1020.5 hPa NW 9.7 km/h 22.5 km/h 63 % 0.0 mm
14:52 8.9 °C 2.0 °C 1020.5 hPa NW 6.4 km/h 22.5 km/h 62 % 0.0 mm
14:57 8.9 °C 2.0 °C 1020.5 hPa WNW 14.5 km/h 22.5 km/h 62 % 0.0 mm
15:02 8.9 °C 2.7 °C 1020.5 hPa WNW 4.8 km/h 22.5 km/h 65 % 0.0 mm
15:07 8.9 °C 2.5 °C 1020.5 hPa NW 6.4 km/h 22.5 km/h 64 % 0.0 mm
15:12 8.9 °C 2.0 °C 1020.5 hPa NW 8.0 km/h 19.3 km/h 62 % 0.0 mm
15:17 8.9 °C 2.0 °C 1020.5 hPa West 8.0 km/h 22.5 km/h 62 % 0.0 mm
15:22 8.9 °C 2.0 °C 1020.5 hPa West 12.9 km/h 22.5 km/h 62 % 0.0 mm
15:27 8.9 °C 2.0 °C 1020.5 hPa WNW 6.4 km/h 20.9 km/h 62 % 0.0 mm
15:37 9.0 °C 2.3 °C 1020.9 hPa WNW 3.2 km/h 17.7 km/h 63 % 0.0 mm
15:42 9.1 °C 2.2 °C 1020.9 hPa West 8.0 km/h 20.9 km/h 62 % 0.0 mm
15:52 8.9 °C 2.0 °C 1020.9 hPa WSW 11.3 km/h 17.7 km/h 62 % 0.0 mm
15:57 9.0 °C 2.6 °C 1020.9 hPa WNW 8.0 km/h 17.7 km/h 64 % 0.0 mm
16:02 9.1 °C 2.9 °C 1020.9 hPa West 11.3 km/h 17.7 km/h 65 % 0.0 mm
16:07 9.1 °C 3.3 °C 1020.9 hPa WNW 3.2 km/h 17.7 km/h 67 % 0.0 mm
16:12 9.1 °C 3.3 °C 1020.9 hPa West 4.8 km/h 16.1 km/h 67 % 0.0 mm
16:22 8.9 °C 3.1 °C 1021.2 hPa WNW 11.3 km/h 16.1 km/h 67 % 0.0 mm
16:27 8.9 °C 3.1 °C 1021.2 hPa West 9.7 km/h 17.7 km/h 67 % 0.0 mm
16:32 8.9 °C 3.5 °C 1021.2 hPa WNW 6.4 km/h 17.7 km/h 69 % 0.0 mm
16:37 8.9 °C 3.5 °C 1021.2 hPa WSW 4.8 km/h 17.7 km/h 69 % 0.0 mm
16:42 8.9 °C 3.9 °C 1021.2 hPa West 3.2 km/h 17.7 km/h 71 % 0.0 mm
16:47 8.9 °C 3.5 °C 1021.2 hPa WNW 6.4 km/h 9.7 km/h 69 % 0.0 mm
16:52 8.9 °C 3.1 °C 1021.2 hPa West 6.4 km/h 9.7 km/h 67 % 0.0 mm
16:57 8.9 °C 3.3 °C 1021.2 hPa West 6.4 km/h 14.5 km/h 68 % 0.0 mm
17:02 8.8 °C 3.0 °C 1021.2 hPa WNW 4.8 km/h 16.1 km/h 67 % 0.0 mm
17:07 8.8 °C 2.8 °C 1021.2 hPa WSW 6.4 km/h 16.1 km/h 66 % 0.0 mm
17:12 8.7 °C 3.1 °C 1021.2 hPa WNW 6.4 km/h 16.1 km/h 68 % 0.0 mm
17:17 8.7 °C 3.1 °C 1020.9 hPa WNW 6.4 km/h 12.9 km/h 68 % 0.0 mm
17:22 8.6 °C 3.0 °C 1021.2 hPa WNW 1.6 km/h 12.9 km/h 68 % 0.0 mm
17:27 8.6 °C 3.0 °C 1021.2 hPa NW 6.4 km/h 12.9 km/h 68 % 0.0 mm
17:32 8.6 °C 3.0 °C 1020.9 hPa WNW 3.2 km/h 11.3 km/h 68 % 0.0 mm
17:37 8.6 °C 3.0 °C 1020.9 hPa WNW 3.2 km/h 9.7 km/h 68 % 0.0 mm
17:42 8.6 °C 3.0 °C 1020.9 hPa WNW 3.2 km/h 9.7 km/h 68 % 0.0 mm
17:47 8.5 °C 3.1 °C 1020.9 hPa WNW 1.6 km/h 8.0 km/h 69 % 0.0 mm
17:52 8.5 °C 3.1 °C 1021.2 hPa WNW 4.8 km/h 8.0 km/h 69 % 0.0 mm
18:02 8.4 °C 3.2 °C 1021.6 hPa West 4.8 km/h 6.4 km/h 70 % 0.0 mm
18:12 8.3 °C 3.4 °C 1021.6 hPa West 1.6 km/h 8.0 km/h 71 % 0.0 mm
18:17 8.3 °C 3.5 °C 1021.6 hPa West 4.8 km/h 6.4 km/h 72 % 0.0 mm
18:22 8.1 °C 4.1 °C 1021.6 hPa WSW 8.0 km/h 12.9 km/h 76 % 0.0 mm
18:27 7.9 °C 4.3 °C 1021.6 hPa WSW 4.8 km/h 12.9 km/h 78 % 0.0 mm
18:32 7.8 °C 4.4 °C 1021.6 hPa WSW 4.8 km/h 12.9 km/h 79 % 0.0 mm
18:37 7.7 °C 4.3 °C 1021.6 hPa West 9.7 km/h 16.1 km/h 79 % 0.0 mm
18:42 7.6 °C 4.4 °C 1021.6 hPa WSW 4.8 km/h 16.1 km/h 80 % 0.0 mm
18:47 7.6 °C 4.4 °C 1021.6 hPa WSW 8.0 km/h 16.1 km/h 80 % 0.0 mm
18:52 7.5 °C 4.3 °C 1021.6 hPa SW 8.0 km/h 16.1 km/h 80 % 0.0 mm
18:57 7.4 °C 4.2 °C 1021.9 hPa WSW 3.2 km/h 16.1 km/h 80 % 0.0 mm
19:02 7.4 °C 4.2 °C 1021.9 hPa WNW 3.2 km/h 12.9 km/h 80 % 0.0 mm
19:07 7.3 °C 4.1 °C 1021.9 hPa West 4.8 km/h 12.9 km/h 80 % 0.0 mm
19:12 7.3 °C 4.3 °C 1021.9 hPa WSW 8.0 km/h 11.3 km/h 81 % 0.0 mm
19:17 7.2 °C 4.2 °C 1021.9 hPa West 4.8 km/h 11.3 km/h 81 % 0.0 mm
19:22 7.1 °C 4.1 °C 1021.9 hPa WSW 3.2 km/h 9.7 km/h 81 % 0.0 mm
19:27 7.1 °C 4.1 °C 1022.2 hPa West 1.6 km/h 8.0 km/h 81 % 0.0 mm
19:32 7.1 °C 4.1 °C 1022.2 hPa West 1.6 km/h 8.0 km/h 81 % 0.0 mm
19:37 6.9 °C 3.9 °C 1022.2 hPa WSW 3.2 km/h 6.4 km/h 81 % 0.0 mm
19:42 6.8 °C 3.9 °C 1022.2 hPa Calm   4.8 km/h 82 % 0.0 mm
19:47 6.7 °C 3.8 °C 1022.6 hPa West 1.6 km/h 4.8 km/h 82 % 0.0 mm
19:52 6.6 °C 3.9 °C 1022.6 hPa Calm   4.8 km/h 83 % 0.0 mm
19:57 6.5 °C 3.8 °C 1022.2 hPa WSW 1.6 km/h 3.2 km/h 83 % 0.0 mm
20:02 6.4 °C 3.7 °C 1022.6 hPa Calm   1.6 km/h 83 % 0.0 mm
20:07 6.4 °C 3.7 °C 1022.6 hPa Calm   1.6 km/h 83 % 0.0 mm
20:12 6.3 °C 3.8 °C 1022.6 hPa Calm   1.6 km/h 84 % 0.0 mm
20:17 6.1 °C 3.6 °C 1022.6 hPa Calm   1.6 km/h 84 % 0.0 mm
20:22 5.9 °C 3.6 °C 1022.6 hPa Calm   1.6 km/h 85 % 0.0 mm
20:32 5.9 °C 3.6 °C 1022.6 hPa Calm   1.6 km/h 85 % 0.0 mm
20:37 5.8 °C 3.5 °C 1022.6 hPa Calm   1.6 km/h 85 % 0.0 mm
20:42 5.6 °C 3.4 °C 1022.6 hPa Calm   1.6 km/h 86 % 0.0 mm
20:47 5.3 °C 3.5 °C 1022.6 hPa Calm   1.6 km/h 88 % 0.0 mm
20:52 5.2 °C 3.4 °C 1022.6 hPa SW 1.6 km/h 1.6 km/h 88 % 0.0 mm
20:57 5.2 °C 3.5 °C 1022.9 hPa Calm   1.6 km/h 89 % 0.0 mm
21:02 5.1 °C 3.4 °C 1022.9 hPa West 1.6 km/h 1.6 km/h 89 % 0.0 mm
21:07 5.1 °C 3.3 °C 1022.9 hPa Calm   3.2 km/h 88 % 0.0 mm
21:12 5.2 °C 3.4 °C 1022.9 hPa Calm   3.2 km/h 88 % 0.0 mm
21:17 5.3 °C 3.5 °C 1022.9 hPa West 1.6 km/h 3.2 km/h 88 % 0.0 mm
21:22 5.2 °C 3.2 °C 1022.9 hPa West 1.6 km/h 3.2 km/h 87 % 0.0 mm
21:27 5.1 °C 3.3 °C 1022.9 hPa West 1.6 km/h 3.2 km/h 88 % 0.0 mm
21:32 4.9 °C 3.1 °C 1023.2 hPa Calm   3.2 km/h 88 % 0.0 mm
21:37 4.7 °C 2.9 °C 1022.9 hPa Calm   1.6 km/h 88 % 0.0 mm
21:42 4.3 °C 2.5 °C 1022.9 hPa SSW 1.6 km/h 1.6 km/h 88 % 0.0 mm
21:47 4.2 °C 2.7 °C 1022.9 hPa SSW 1.6 km/h 3.2 km/h 90 % 0.0 mm
21:52 4.2 °C 2.9 °C 1023.2 hPa South 3.2 km/h 3.2 km/h 91 % 0.0 mm
21:57 4.4 °C 3.1 °C 1023.2 hPa SW 3.2 km/h 4.8 km/h 91 % 0.0 mm
22:02 4.5 °C 3.0 °C 1023.6 hPa SW 3.2 km/h 4.8 km/h 90 % 0.0 mm
22:07 4.6 °C 3.3 °C 1023.6 hPa WSW 3.2 km/h 4.8 km/h 91 % 0.0 mm
22:12 4.7 °C 3.4 °C 1023.6 hPa West 3.2 km/h 6.4 km/h 91 % 0.0 mm
22:17 4.8 °C 3.3 °C 1023.9 hPa WSW 1.6 km/h 6.4 km/h 90 % 0.0 mm
22:22 4.8 °C 3.3 °C 1023.6 hPa Calm   6.4 km/h 90 % 0.0 mm
22:27 4.8 °C 3.3 °C 1023.6 hPa Calm   6.4 km/h 90 % 0.0 mm
22:32 4.8 °C 3.3 °C 1023.6 hPa Calm   4.8 km/h 90 % 0.0 mm
22:37 4.4 °C 2.7 °C 1023.9 hPa Calm   1.6 km/h 89 % 0.0 mm
22:42 4.3 °C 2.8 °C 1023.9 hPa Calm   1.6 km/h 90 % 0.0 mm
22:47 4.0 °C 2.5 °C 1023.9 hPa Calm     90 % 0.0 mm
22:52 3.8 °C 2.3 °C 1023.9 hPa Calm     90 % 0.0 mm
22:57 3.7 °C 2.4 °C 1023.9 hPa Calm     91 % 0.0 mm
23:02 3.6 °C 2.4 °C 1023.9 hPa Calm     92 % 0.0 mm
23:07 3.6 °C 2.4 °C 1023.9 hPa Calm     92 % 0.0 mm
23:12 3.6 °C 2.4 °C 1023.9 hPa Calm     92 % 0.0 mm
23:17 3.6 °C 2.4 °C 1023.9 hPa Calm   3.2 km/h 92 % 0.0 mm
23:22 3.7 °C 2.7 °C 1023.9 hPa Calm   3.2 km/h 93 % 0.0 mm
23:27 3.7 °C 2.7 °C 1023.6 hPa Calm   1.6 km/h 93 % 0.0 mm
23:32 3.5 °C 2.5 °C 1023.6 hPa Calm   1.6 km/h 93 % 0.0 mm
23:37 3.4 °C 2.4 °C 1023.6 hPa Calm     93 % 0.0 mm
23:42 3.4 °C 2.4 °C 1023.2 hPa SE 1.6 km/h   93 % 0.0 mm
23:47 3.4 °C 2.4 °C 1023.2 hPa Calm   3.2 km/h 93 % 0.0 mm
23:52 3.3 °C 2.4 °C 1023.2 hPa Calm   3.2 km/h 94 % 0.0 mm
23:57 3.4 °C 2.5 °C 1023.6 hPa Calm   3.2 km/h 94 % 0.0 mm
Meteo18
Compliments of Weather Underground - 4 mb

Script developed by  Jim McMurry - jmcmurry@mwt.net Adapted for the template by  Wim van der Kuil - Leuven-Template.eu

You find our weather info also at:

European Weather Network

Weather Underground

Equipment we use:

Weather-station
Davis Vue

Weather-program
Meteohub

Weather-server
Raspberry PI 2 B+

Provider
1 and 1

Davis Vue

Meteohub

Raspberry PI 2 B+

1 and 1